Regional Weather Roundup
Issued by NWS

Home | Current Version | Previous Version | Text Only | Print | Product List | Glossary Off
Versions: 1 2 3 4 5 6 7 8 9 10 11 12 13 14 15 16 17 18 19 20 21 22 23 24 25 26 27 28 29 30 31 32 33 34 35 36 37 38 39 40 41 42 43 44 45 46 47 48 49 50

000
ASUS43 KLSX 290710
RWRMO

WEATHER SUMMARY FOR MISSOURI
NATIONAL WEATHER SERVICE SPRINGFIELD MO
200 AM CDT THU SEP 29 2016

NOTE: "FAIR" INDICATES FEW OR NO CLOUDS BELOW 12,000 FEET WITH NO
       SIGNIFICANT WEATHER AND/OR OBSTRUCTIONS TO VISIBILITY.
       CURRENT SKY AND/OR WEATHER CONDITIONS ARE NOT AVAILABLE FOR
       CHILLICOTHE AND FARMINGTON.

MOZ001>031-035>038-043-044-053-054-290800-
...NORTHERN AND WESTERN MISSOURI...

CITY           SKY/WX    TMP DP  RH WIND       PRES   REMARKS
KANSAS CTY INT PTCLDY    50  45  83 N6        30.28S
KANSAS C DTWN  CLEAR     54  47  77 NW5       30.27S
LEE`S SUMMIT   CLEAR     53  47  79 N10       30.27S
ST JOSEPH      CLEAR     49  47  93 N6        30.30S
CHILLICOTHE      N/A     54  49  83 VRB5      30.28R
KIRKSVILLE     CLEAR     50  47  89 NW5       30.25R

$$
MOZ066>068-077>081-088>096-101>105-290800-
...SOUTHWEST MISSOURI...

CITY           SKY/WX    TMP DP  RH WIND       PRES   REMARKS
SPRINGFIELD    CLEAR     49  44  83 NW6       30.22S
JOPLIN         CLEAR     50  47  89 N5        30.25S
BRANSON        CLEAR     50  46  87 N5        30.22S

$$
MOZ032>034-039>042-045>050-055>058-069>072-290800-
...CENTRAL MISSOURI...

CITY           SKY/WX    TMP DP  RH WIND       PRES   REMARKS
COLUMBIA       CLEAR     51  49  92 NW8       30.21R
JEFFERSON CITY CLEAR     53  49  86 NW5       30.20S
ROLLA          CLEAR     51  48  89 NW8       30.17S
SEDALIA        CLEAR     51  48  89 NW6       30.24S
WHITEMAN AFB   CLEAR     51  50  99 N8        30.23S
OSAGE BEACH    CLEAR     51  48  89 VRB3      30.21S

$$
MOZ051-052-059>065-290800-
...EAST CENTRAL MISSOURI...

CITY           SKY/WX    TMP DP  RH WIND       PRES   REMARKS
ST LOUIS INTL  CLEAR     54  49  83 NW6       30.13S
SPIRIT OF STL  CLEAR     55  50  83 NW7       30.14R
ST CHARLES     CLEAR     56  51  84 NW12      30.13R

$$
MOZ072>076-082>087-097>100-106>115-290800-
...SOUTH CENTRAL AND SOUTHEAST MISSOURI...

CITY           SKY/WX    TMP DP  RH WIND       PRES   REMARKS
CAPE GIRARDEAU PTCLDY    49  46  90 CALM      30.09F
FARMINGTON     CLEAR     53  48  83 NW6       30.13F
POPLAR BLUFF   PTCLDY    53  49  86 NW6       30.12S
WEST PLAINS    CLEAR     52  46  80 N6        30.19R

$$



USA.gov is the U.S. government's official web portal to all federal, state and local government web resources and services.